Theta_e
347 359 361 358 358 360 361 361 362 361 361 361 360 360 360 360 359 359 359 359 359 358 356 357 356 353 352 351 351 351 351 350 350 348 345 343 343 342 342 342 341 340 343
351 360 362 359 357 360 360 360 361 361 361 361 360 359 359 359 359 359 358 358 358 357 355 356 356 356 354 353 351 351 349 349 347 345 344 344 342 341 342 342 340 343 343
352 360 358 361 359 359 360 361 361 361 361 360 360 359 359 359 358 358 358 358 357 357 357 356 355 355 355 354 352 351 349 348 349 350 343 344 342 343 343 343 344 344 343
355 360 360 361 361 357 359 360 360 360 360 360 359 358 358 358 358 359 358 358 357 357 356 356 355 354 353 352 352 352 352 352 352 353 354 354 347 345 345 344 344 344 343
355 359 361 361 361 357 356 358 359 360 360 359 358 357 358 358 358 358 358 357 357 356 356 356 355 355 354 354 353 353 353 353 354 353 349 352 354 347 346 346 345 345 344
356 359 361 360 360 359 356 357 359 359 359 359 358 357 357 356 357 358 358 357 357 356 356 356 356 356 355 355 355 355 355 354 354 348 349 349 349 353 349 347 346 346 345
357 359 357 360 359 357 355 355 357 358 358 358 357 356 356 356 355 356 357 357 357 357 358 358 358 358 357 357 356 355 355 354 353 349 349 350 348 347 350 351 348 347 346
354 357 359 360 361 361 360 358 357 356 356 355 355 355 355 355 355 355 354 355 355 356 356 356 358 360 359 357 356 356 355 355 351 351 351 352 352 348 350 354 351 348 346
349 349 352 354 356 358 360 360 358 357 357 356 356 356 355 355 356 355 356 354 354 356 357 356 358 358 358 358 357 356 356 356 353 349 350 352 355 351 350 355 353 351 349
342 346 345 349 347 351 352 357 358 359 359 358 357 357 357 355 354 355 356 355 354 356 357 357 358 358 357 357 355 356 355 355 348 345 346 348 348 353 353 353 355 354 351
336 342 347 351 349 349 351 352 351 350 350 352 353 354 354 354 354 353 352 351 352 353 357 358 358 356 356 356 356 355 355 350 346 344 344 346 350 354 354 354 357 356 355
335 340 346 350 349 346 343 347 350 348 351 351 352 354 351 351 352 349 350 350 351 353 351 355 357 357 355 353 354 351 349 348 344 345 341 346 345 348 354 357 358 356 357
335 340 345 346 341 343 342 342 344 348 348 347 349 350 354 351 351 351 352 342 342 343 348 354 356 357 355 355 353 350 344 343 345 344 343 342 343 346 350 359 359 358 357
335 338 340 345 344 342 341 340 343 344 345 345 349 352 354 347 343 341 338 336 336 335 342 348 350 354 354 353 350 347 345 343 342 341 343 343 343 345 348 352 358 359 358
339 338 338 340 341 341 340 339 340 342 341 341 342 341 341 340 341 339 338 334 333 335 335 338 346 349 350 350 347 343 339 338 338 338 339 344 343 343 347 351 358 360 356
338 338 338 337 339 338 338 339 339 341 339 339 337 336 336 335 335 335 335 331 334 336 333 330 331 333 335 333 333 332 332 333 333 335 335 338 342 343 347 348 353 359 356
337 338 337 337 336 337 335 336 336 336 336 338 336 336 335 335 335 336 333 333 335 335 333 333 332 332 330 330 330 329 330 330 331 332 338 339 341 343 347 350 352 357 357
334 332 337 334 334 335 335 334 334 334 335 335 335 335 335 335 336 336 333 333 334 332 331 330 330 329 329 329 330 330 329 329 329 337 343 345 346 347 349 352 353 354 356
333 333 334 335 334 334 334 334 333 333 333 334 336 335 335 334 334 337 336 336 335 332 329 327 327 328 327 327 328 328 328 328 328 341 341 342 345 348 350 345 348 351 352
334 334 334 334 335 335 333 334 332 331 330 329 330 331 332 332 332 334 334 335 334 332 331 330 327 327 325 323 324 325 327 327 336 343 339 337 340 342 344 346 348 348 348
333 332 333 333 335 333 330 328 327 324 324 326 327 329 330 329 329 331 329 332 334 332 332 333 329 326 320 323 318 318 322 325 329 340 338 335 336 337 340 341 342 346 345
331 332 333 334 335 332 329 325 324 323 323 324 326 327 327 326 328 329 331 329 330 326 329 328 327 320 319 320 315 314 314 320 326 332 334 333 332 334 334 335 338 344 345
330 332 333 335 335 331 328 326 326 326 324 322 323 323 324 323 323 326 328 329 329 327 321 325 325 324 315 317 320 317 311 312 319 325 330 328 329 329 330 332 336 341 344
329 330 330 332 331 329 326 324 324 320 318 318 317 317 318 319 319 320 321 323 326 326 325 324 325 325 324 316 320 321 320 317 310 314 323 328 329 327 327 331 333 336 339
317 316 321 322 322 320 320 320 316 316 314 314 314 316 319 319 317 316 318 318 319 319 324 328 328 327 324 323 320 319 318 317 316 313 313 320 326 327 325 328 329 331 332
314 314 315 316 317 318 317 317 316 314 313 311 312 311 311 312 313 315 316 317 317 318 319 324 327 324 325 321 322 321 320 314 314 312 311 315 313 321 323 324 326 328 328
Wind_Speed
6 7 10 10 8 8 10 12 12 13 13 12 13 12 11 10 10 10 11 10 10 11 12 13 12 12 11 11 11 10 10 10 10 9 9 8 7 7 7 7 6 9 10
8 8 10 11 11 10 9 9 9 11 12 11 12 12 11 10 10 9 9 9 9 9 9 9 9 9 9 9 9 8 8 8 8 7 6 7 6 6 6 7 3 8 7
7 9 12 11 12 11 10 9 9 9 9 10 10 11 11 10 9 8 7 7 7 8 7 7 6 6 6 6 5 4 3 4 4 4 2 2 4 5 5 5 6 8 7
5 6 8 9 9 10 8 7 7 7 8 9 10 10 9 8 7 6 5 5 5 6 5 4 4 4 3 3 3 3 3 3 4 6 5 2 1 6 6 6 6 6 6
3 3 7 7 8 9 9 8 8 8 9 10 9 9 8 7 6 5 3 2 2 3 2 2 1 1 1 0 1 3 4 5 6 8 6 5 4 5 7 8 8 7 7
6 3 7 6 6 7 8 8 8 7 7 7 8 8 9 8 7 7 5 4 2 2 4 4 4 5 4 3 4 5 5 6 8 7 6 5 7 2 10 10 8 7 7
6 6 6 5 4 3 3 2 3 5 5 4 5 5 6 6 7 6 6 5 4 5 6 6 6 7 6 6 6 5 6 7 10 7 7 7 8 3 13 13 12 11 10
6 6 7 8 7 6 6 6 5 5 2 1 1 1 3 4 5 6 6 6 6 7 8 7 8 8 7 7 7 7 7 8 9 8 9 8 5 8 10 15 14 12 11
7 6 6 6 6 7 6 5 4 2 4 3 2 3 3 5 6 7 7 8 8 9 10 9 10 9 9 9 8 8 8 9 11 6 9 6 1 9 9 15 16 15 13
9 8 7 5 5 5 4 7 6 6 4 4 5 6 5 5 6 7 6 9 10 11 12 12 11 10 10 9 9 8 8 9 10 8 6 5 6 11 12 14 16 15 14
8 7 7 7 6 5 6 6 3 3 3 4 4 3 5 5 6 7 5 9 11 12 13 14 12 11 10 10 9 8 8 5 7 5 5 2 8 10 12 12 15 17 17
7 8 6 6 6 6 4 4 2 2 1 2 4 5 4 5 5 7 8 9 11 12 13 14 14 11 10 6 4 6 5 5 6 6 6 5 10 10 13 12 14 17 16
6 5 6 6 5 3 4 2 2 1 2 3 4 4 3 3 3 4 4 4 5 6 5 6 4 4 6 5 4 4 5 6 4 5 6 7 12 12 14 12 13 15 18
4 5 6 6 5 4 2 2 2 1 1 2 3 3 2 2 3 4 4 6 5 5 6 4 4 3 5 5 5 6 6 5 4 4 6 8 11 11 13 13 13 16 18
6 5 5 5 4 3 2 2 2 2 2 2 2 2 2 2 1 1 1 1 2 3 5 5 4 4 4 4 4 5 5 5 5 4 5 6 9 11 11 13 13 16 18
5 4 4 5 4 4 4 3 2 1 2 1 1 1 2 1 1 1 1 1 1 1 2 3 4 4 4 4 3 4 5 5 6 6 5 7 5 8 9 10 12 13 13
5 4 4 5 4 4 3 3 3 3 3 2 2 4 4 3 3 3 2 1 1 2 3 3 3 3 4 4 5 4 5 5 5 6 6 6 5 5 4 8 10 8 9
2 1 4 4 4 4 4 3 3 3 3 3 3 3 5 5 4 3 4 4 4 3 4 4 5 4 5 5 5 5 5 6 6 6 4 5 4 4 3 6 3 4 8
2 3 4 5 5 5 4 3 4 4 3 3 1 2 2 1 1 1 1 1 1 2 3 4 5 5 5 6 6 6 7 7 5 2 5 5 5 3 2 10 12 11 12
5 5 5 4 5 5 6 5 5 5 5 4 3 3 6 4 5 4 3 3 4 3 2 0 1 2 4 6 6 7 8 5 3 1 3 4 5 6 6 5 4 8 10
6 6 6 6 5 5 6 6 5 5 5 4 4 5 7 6 8 7 7 5 6 6 7 6 5 5 3 1 2 7 8 2 4 2 3 4 5 6 7 6 4 3 7
6 7 8 8 7 5 4 4 4 5 6 6 6 5 6 7 9 9 10 8 7 6 7 8 7 6 5 3 2 1 2 6 2 2 3 5 7 6 7 6 6 5 5
9 10 10 10 8 6 6 6 5 6 6 7 8 9 9 10 10 10 10 10 10 8 8 8 7 7 8 5 7 5 2 6 6 2 4 4 6 6 6 6 6 5 5
10 9 11 11 10 7 6 6 7 7 8 8 8 8 10 12 12 11 10 11 12 10 10 11 8 8 7 7 3 7 7 2 3 10 4 3 5 6 5 5 5 6 5
5 6 6 6 5 5 5 6 6 8 8 8 9 12 12 11 13 14 12 12 11 10 12 12 11 9 6 7 7 5 6 4 4 6 10 4 4 6 4 4 3 3 7
4 4 4 5 4 6 7 9 10 11 12 11 13 12 12 12 12 14 14 11 11 12 13 12 13 12 9 9 9 9 8 4 6 4 4 5 1 3 3 2 3 3 5
Wind_Direction
179 146 145 141 138 128 124 120 118 115 113 112 114 112 108 104 103 97 94 91 92 90 93 97 103 106 104 100 95 88 85 85 87 92 86 94 97 103 105 104 139 109 115
144 156 143 143 142 139 130 121 121 120 119 118 118 115 107 101 98 96 92 88 88 91 89 93 99 104 103 100 98 98 96 90 84 82 88 113 112 116 119 121 107 95 110
140 154 158 153 149 153 149 140 133 123 117 113 107 103 100 98 92 89 88 87 85 84 83 79 72 70 74 82 95 99 96 99 109 84 108 74 101 141 137 141 139 136 131
137 147 153 144 144 148 146 133 115 108 105 104 105 104 102 99 97 95 94 95 96 91 87 82 80 71 70 64 34 15 359 334 311 306 255 244 247 163 174 168 165 154 146
88 135 138 143 142 146 149 143 134 128 124 124 122 121 119 118 118 117 130 140 119 113 118 134 129 138 201 209 319 319 308 301 302 278 297 284 271 184 208 192 183 182 181
81 86 119 129 136 147 154 153 150 150 151 142 142 142 143 148 158 166 178 193 201 219 224 213 217 221 225 233 229 243 274 289 290 284 272 264 263 271 227 216 206 201 191
89 78 100 75 76 103 129 145 159 159 162 165 167 163 163 175 186 189 203 217 223 234 252 259 249 243 241 248 257 263 276 286 285 289 282 271 270 251 238 218 210 202 200
75 84 73 71 68 65 55 42 10 356 359 359 313 245 215 229 245 243 240 244 246 253 257 264 276 278 273 261 268 269 268 277 276 284 281 277 276 272 237 215 214 211 205
59 64 70 62 70 72 75 85 96 54 327 311 268 231 262 277 271 277 277 273 264 257 260 259 252 257 262 263 262 263 273 280 287 287 286 272 31 270 250 220 211 213 212
47 53 46 48 70 82 69 54 44 22 359 314 306 302 294 270 257 256 282 254 276 274 264 258 256 252 253 258 265 263 267 272 267 299 285 282 280 260 247 226 218 220 208
57 41 31 47 83 83 67 65 81 56 16 335 300 300 278 281 292 289 306 293 290 287 284 273 262 253 253 245 253 261 269 261 280 284 276 39 282 262 252 236 226 215 208
60 44 28 57 85 89 75 64 98 102 5 338 284 278 277 281 285 298 298 297 287 284 277 270 258 256 252 256 231 215 257 270 272 278 269 264 278 278 257 259 233 230 215
88 69 59 79 64 95 45 32 31 28 19 353 348 317 297 309 298 291 301 309 315 311 304 289 284 258 270 274 266 272 291 278 271 275 271 274 275 280 263 248 238 221 211
126 97 86 93 98 91 77 54 57 41 67 68 76 95 111 80 40 4 343 342 336 341 321 322 309 307 261 259 270 289 275 275 279 282 281 273 282 281 261 249 250 219 212
123 117 108 114 114 122 122 74 51 78 84 66 52 59 78 97 99 156 187 275 319 332 340 334 327 326 290 268 260 273 284 290 293 282 288 285 286 288 262 247 238 209 214
126 121 100 88 90 85 62 47 41 32 149 177 158 209 169 184 190 202 195 187 129 32 12 354 16 0 349 333 311 310 301 302 297 291 296 297 288 292 263 245 243 219 207
144 139 126 107 91 71 61 22 10 352 352 10 6 344 341 340 347 328 323 317 13 59 80 82 48 39 22 352 353 347 329 328 296 298 289 291 287 204 314 271 249 244 211
148 90 56 50 45 34 23 3 347 357 348 7 16 1 9 11 17 13 358 3 14 31 44 40 39 46 21 3 358 347 338 319 314 299 314 317 301 297 162 33 39 200 164
286 334 20 19 15 352 338 314 306 317 312 316 326 325 313 265 239 178 151 117 59 39 52 46 41 26 44 27 354 341 342 324 307 346 30 27 27 22 56 72 65 77 99
296 318 328 326 332 319 302 292 289 287 273 277 280 296 301 300 291 273 224 205 207 205 226 98 59 39 32 18 7 7 341 333 340 70 61 50 44 40 48 38 90 84 83
283 292 291 298 297 301 311 318 311 305 313 304 304 317 302 315 305 297 288 255 244 252 265 259 275 275 251 307 47 11 329 279 336 23 34 48 35 48 46 51 48 85 101
293 294 281 275 289 319 317 329 317 314 301 302 306 328 323 339 320 303 297 290 272 267 261 261 257 274 277 260 263 200 350 301 132 349 73 38 33 30 41 45 62 84 111
284 285 289 294 310 324 325 304 294 282 268 296 318 322 332 329 315 308 294 291 292 287 276 268 264 253 272 274 242 240 169 225 329 161 77 87 66 46 30 24 49 79 101
276 287 301 304 310 308 312 300 311 308 308 325 313 315 315 318 320 316 305 296 288 279 272 269 256 242 244 264 259 235 238 153 156 270 185 106 89 77 25 10 17 39 55
320 341 336 329 327 350 357 358 343 334 323 319 312 315 310 306 312 311 305 300 292 281 273 259 257 238 232 249 245 239 230 196 191 252 256 232 158 78 58 350 19 48 69
350 348 6 359 358 356 351 347 343 333 329 322 319 311 307 308 306 305 305 305 301 293 279 270 262 248 236 235 235 235 225 187 199 173 258 281 354 92 96 35 1 61 95